Temperature
14 14 14 14 14 14 14 14 14 14 15 15 15 15 14 14 14 14 14 13 13 14 14 14 14 14 14 14 14 14 15 15 14 14 15 15 15 15
14 14 14 14 14 13 13 14 14 14 14 14 14 14 14 14 14 13 13 13 13 13 13 14 14 14 14 14 14 14 14 14 14 14 14 14 14 14
13 13 14 14 14 13 13 13 13 14 14 14 14 14 14 14 13 13 13 13 13 13 13 13 13 14 14 14 14 14 14 14 14 14 14 14 14 14
14 14 14 14 14 14 14 14 14 13 13 14 14 14 14 13 13 13 13 13 13 13 13 13 13 13 13 14 14 14 14 14 14 14 14 14 14 14
14 14 14 14 14 14 14 14 14 13 13 13 13 13 13 13 13 13 13 13 13 13 13 13 13 13 13 13 13 13 13 13 13 13 14 14 14 14
14 14 14 14 14 14 14 14 14 13 13 13 13 13 13 13 13 13 13 13 13 13 13 13 13 13 13 13 13 13 13 13 13 13 13 13 13 13
15 14 14 14 14 14 14 14 13 13 13 13 13 13 13 13 13 13 13 13 13 13 13 13 13 13 13 13 13 13 13 13 13 13 13 13 13 13
15 15 15 14 14 14 14 14 14 13 13 13 13 13 13 13 13 13 12 12 12 13 13 13 13 13 13 13 13 13 13 13 13 13 13 13 13 13
15 15 15 14 14 14 14 14 14 14 13 13 13 13 13 13 13 12 12 12 12 12 12 12 12 12 12 12 12 13 13 12 12 12 12 12 12 13
15 15 15 15 14 14 13 13 13 13 13 13 13 13 13 13 13 12 12 12 12 12 12 12 12 12 12 12 12 12 12 12 12 12 12 12 12 12
15 15 15 14 14 14 13 13 13 13 13 13 13 13 13 13 12 12 12 11 11 12 12 12 12 12 12 12 12 12 12 12 12 12 12 12 12 12
14 14 14 14 14 14 13 13 13 13 13 13 12 12 12 12 12 12 12 11 11 11 12 12 12 12 12 12 12 12 12 12 12 12 12 12 12 11
13 13 13 14 14 13 13 13 13 13 13 12 12 12 12 12 12 12 12 12 11 11 12 12 12 12 12 11 12 12 12 12 12 12 12 12 11 11
13 13 13 13 13 13 13 13 13 12 12 12 11 11 12 12 12 12 12 12 12 12 12 12 11 11 11 11 11 11 11 11 12 12 12 11 11 11
12 12 12 12 12 12 12 12 12 12 12 11 11 11 11 12 12 12 12 12 12 11 11 11 11 11 11 10 10 11 11 11 11 11 11 11 11 11
11 11 11 12 12 12 12 12 12 12 11 11 11 11 11 11 11 12 12 12 12 11 11 11 11 11 11 11 10 10 10 10 11 11 11 11 11 11
11 11 11 11 10 11 11 11 11 11 11 11 11 11 11 11 11 11 11 12 11 11 11 11 11 11 11 11 10 10 10 10 10 10 10 11 11 11
10 10 10 9 9 10 10 10 11 11 11 11 11 11 11 11 11 11 11 11 11 11 11 11 11 11 10 10 10 10 10 10 10 10 10 10 10 11
10 10 9 9 9 9 10 10 10 10 11 11 11 11 11 10 10 10 10 10 10 10 11 11 11 10 10 10 10 10 10 10 10 10 10 10 10 10
9 9 9 9 9 9 9 9 10 10 10 10 10 10 10 10 10 10 10 10 10 10 10 10 10 10 10 10 10 10 10 10 10 10 10 10 10 10
9 9 9 9 9 9 9 9 9 9 9 9 9 9 9 9 9 9 9 9 10 9 9 9 10 10 10 10 9 10 10 10 10 10 10 10 10 10
8 8 8 8 8 8 8 8 8 8 8 8 8 8 9 9 9 9 9 9 9 9 9 9 9 9 9 9 9 9 9 10 10 10 10 10 10 10
7 7 7 7 7 7 7 7 7 7 7 7 8 8 8 8 8 8 8 8 8 9 9 9 9 9 9 9 9 9 9 9 9 10 10 10 10 10
Wind_Speed
3 3 3 2 2 2 2 2 3 4 3 0 1 3 3 3 8 5 4 9 11 11 10 10 10 9 9 10 11 12 13 14 15 16 18 18 19 20
3 3 2 3 1 2 2 2 2 3 3 2 2 1 1 2 4 4 6 9 14 16 16 16 14 13 12 11 11 12 13 14 15 16 17 18 19 19
5 5 4 4 3 3 3 3 3 3 4 4 3 2 2 3 3 6 9 11 12 19 21 21 19 17 16 15 14 14 14 14 15 16 16 17 18 19
6 6 5 5 5 4 4 4 4 3 4 5 4 4 5 4 5 5 8 11 11 13 18 21 21 21 19 18 17 17 17 16 17 16 17 17 18 18
7 7 6 6 6 5 5 5 4 5 4 5 5 5 4 5 5 5 7 6 11 13 15 21 23 23 22 22 21 20 20 19 19 19 18 18 18 18
7 7 7 7 7 7 7 7 6 6 6 6 6 6 6 5 4 5 5 5 6 9 8 10 18 24 26 26 25 24 23 23 22 21 21 20 20 19
8 8 9 10 10 8 8 6 6 5 6 6 6 6 5 3 3 3 5 4 5 5 5 5 6 9 15 21 24 25 26 25 24 23 22 22 21 21
8 8 9 11 13 14 14 12 10 9 8 7 7 7 6 5 4 4 5 5 5 4 3 5 4 5 6 11 18 24 27 27 26 25 24 24 23 23
7 7 10 12 10 10 13 16 16 17 15 10 11 10 9 7 6 6 6 6 6 5 5 7 6 7 6 13 16 18 23 25 26 26 26 25 25 24
9 9 9 10 11 9 9 10 11 13 15 14 14 14 13 10 9 8 8 8 8 8 8 9 7 7 8 9 15 16 19 23 26 27 27 26 25 25
10 11 11 11 14 14 11 11 11 11 15 19 20 20 20 18 12 7 7 8 10 8 7 8 8 7 7 7 11 18 20 23 25 27 27 26 26 23
8 10 14 14 14 13 11 11 13 12 11 12 11 15 16 17 18 13 11 11 10 9 8 7 7 6 7 6 6 8 12 18 24 26 27 27 25 16
8 8 8 10 12 13 12 11 14 12 10 10 10 10 11 12 13 13 13 13 13 11 8 6 6 6 6 5 5 5 5 5 9 14 22 26 26 18
8 7 6 9 9 11 11 14 17 14 11 11 11 11 10 10 10 12 14 16 16 15 11 8 6 6 7 8 7 6 6 5 6 7 7 16 22 26
8 11 12 13 12 11 15 17 14 11 11 12 13 12 11 11 10 9 10 13 14 18 19 14 12 10 8 9 9 8 7 7 7 7 7 7 7 7
8 10 13 16 14 15 15 13 12 13 13 13 12 11 10 9 9 9 9 9 11 12 13 16 13 13 12 11 10 9 8 7 7 7 7 7 6 6
5 7 9 10 10 10 10 10 10 10 12 12 12 11 11 10 10 9 9 9 10 10 9 9 11 12 13 11 11 11 10 9 8 8 8 8 8 8
5 8 10 11 12 12 11 10 10 10 10 10 11 11 12 11 11 10 9 10 11 10 10 9 8 8 9 11 14 13 11 10 9 9 9 9 9 8
6 10 10 10 10 10 10 10 10 9 9 9 10 10 10 10 10 9 9 10 10 10 10 9 9 10 11 12 10 15 13 11 9 9 9 9 10 9
7 9 9 9 9 9 10 10 10 9 8 8 9 9 9 9 9 9 9 10 10 10 10 9 9 10 12 11 9 8 13 12 10 10 10 8 9 10
9 9 9 9 9 9 9 9 9 8 9 9 9 9 9 8 9 9 9 12 11 9 10 10 10 12 9 7 8 9 9 14 14 10 9 8 8 8
9 9 9 10 9 9 10 9 9 9 9 9 9 8 8 8 9 10 9 9 9 9 11 9 8 6 7 9 11 11 10 9 12 17 17 13 9 9
9 9 9 10 9 9 9 10 11 10 9 9 9 8 8 8 8 8 9 9 9 9 9 8 6 6 8 9 10 10 11 10 8 8 10 15 19 19
Wind_Direction
235 220 247 268 264 308 319 326 323 322 329 294 155 140 152 162 175 216 239 222 221 228 237 245 250 255 258 257 253 250 248 246 246 245 243 243 243 241
242 243 251 283 275 264 268 275 274 285 299 312 295 178 150 271 210 242 270 255 231 233 237 240 241 244 248 251 253 252 251 250 249 249 248 247 246 245
236 227 223 251 277 284 264 254 250 251 270 289 294 296 232 246 248 255 269 264 247 241 238 236 236 238 241 245 248 251 252 253 252 252 252 250 250 249
230 235 230 233 224 247 269 270 263 251 248 269 279 274 257 236 230 231 257 268 267 263 240 231 231 233 236 240 243 246 249 251 251 250 251 252 252 252
227 230 232 235 236 236 243 258 268 269 247 255 266 262 253 248 242 244 253 257 266 273 248 229 229 232 236 239 241 242 244 246 247 247 248 249 251 251
231 231 233 234 233 233 243 242 250 262 266 261 260 259 251 240 225 234 255 249 255 269 272 243 231 233 236 239 240 241 242 242 243 244 246 248 249 250
232 232 236 237 235 234 244 242 250 251 258 261 261 262 259 258 252 249 262 269 259 252 254 255 240 230 234 240 242 243 242 241 240 241 242 244 246 248
236 237 241 236 234 232 237 241 241 247 254 261 269 268 269 268 268 270 268 271 273 267 271 270 263 254 242 237 235 234 236 236 237 238 240 242 244 246
246 247 254 254 238 230 230 234 240 242 238 243 256 260 265 268 272 271 266 265 265 270 284 273 263 262 257 266 263 242 233 233 233 234 236 239 240 242
248 249 250 258 261 252 247 240 234 237 234 234 241 247 251 253 253 255 259 265 262 253 243 255 254 253 259 259 261 253 239 234 232 233 234 236 239 240
249 250 249 250 250 248 250 252 252 250 247 239 227 232 236 242 242 249 254 259 265 260 241 242 247 249 249 248 250 249 241 235 232 232 234 236 238 239
253 253 250 249 252 245 243 249 253 254 256 262 246 241 243 244 236 231 239 248 256 261 246 241 246 247 257 249 244 245 241 240 236 236 236 237 238 234
259 263 262 257 248 248 245 250 254 258 264 262 260 251 242 238 234 228 225 231 240 245 246 244 251 248 250 258 257 251 233 231 234 237 239 240 237 226
265 274 288 305 290 272 260 257 259 262 264 263 261 258 253 247 239 230 221 221 226 235 242 245 253 255 260 266 265 258 250 241 233 230 224 231 233 231
269 281 293 294 293 282 263 258 258 258 256 256 257 256 254 253 249 243 233 226 226 232 238 235 237 243 246 253 260 259 260 253 243 242 239 230 220 211
275 287 290 281 272 266 268 263 252 248 248 253 256 258 256 255 254 252 246 237 236 235 231 230 229 233 242 245 249 256 255 255 251 247 245 244 233 222
304 288 282 279 275 270 266 261 255 250 247 247 252 258 259 259 257 253 251 246 242 243 241 232 227 227 231 235 246 251 254 255 252 249 249 251 246 239
288 279 279 278 277 278 277 274 269 261 257 255 254 254 254 253 255 255 256 254 251 247 245 241 236 235 239 241 231 244 250 253 252 247 245 250 253 246
264 272 275 277 279 281 283 285 285 282 276 268 265 262 260 259 258 257 260 262 260 257 252 244 239 238 243 250 239 221 235 246 249 250 247 245 250 249
272 278 282 284 284 285 287 288 288 290 288 284 279 273 267 262 262 259 256 258 260 262 260 252 242 237 239 247 254 246 227 235 244 248 250 247 248 247
298 299 298 299 301 301 301 300 299 296 294 292 287 283 278 273 269 264 261 261 257 258 258 254 247 237 238 241 252 254 246 229 230 237 240 245 250 251
305 307 309 309 308 306 303 301 299 297 297 295 290 287 286 284 278 271 268 267 261 258 260 260 252 240 237 242 249 254 256 252 241 241 242 236 237 243
317 317 314 311 309 308 308 308 306 303 300 299 298 296 294 290 286 281 279 276 272 269 268 265 259 250 247 245 249 253 255 256 255 250 248 241 237 242
Height
1558 1558 1559 1560 1560 1561 1561 1562 1562 1562 1562 1562 1562 1561 1561 1560 1560 1559 1558 1557 1557 1556 1556 1556 1556 1557 1557 1558 1558 1559 1560 1561 1562 1564 1565 1567 1569 1571
1556 1556 1557 1557 1558 1559 1559 1560 1560 1560 1560 1560 1560 1559 1558 1558 1557 1556 1555 1554 1553 1553 1552 1552 1552 1552 1552 1553 1553 1554 1554 1555 1556 1558 1559 1561 1562 1564
1554 1554 1555 1555 1556 1556 1557 1557 1557 1558 1557 1557 1557 1556 1555 1554 1554 1552 1551 1550 1549 1549 1548 1548 1548 1548 1548 1548 1548 1548 1549 1550 1551 1552 1553 1554 1556 1557
1551 1552 1552 1553 1553 1553 1554 1554 1554 1554 1554 1553 1553 1552 1552 1551 1550 1548 1547 1546 1546 1545 1545 1544 1544 1543 1543 1543 1543 1543 1543 1544 1545 1546 1547 1548 1549 1551
1549 1549 1550 1550 1550 1550 1550 1550 1550 1551 1550 1550 1549 1549 1548 1547 1546 1545 1544 1543 1542 1541 1540 1540 1539 1539 1538 1538 1537 1537 1537 1538 1539 1539 1540 1541 1542 1544
1545 1546 1546 1546 1546 1546 1546 1546 1546 1546 1546 1545 1545 1544 1544 1543 1542 1541 1539 1539 1538 1537 1536 1535 1534 1534 1533 1533 1532 1532 1532 1532 1532 1533 1533 1534 1535 1536
1541 1542 1542 1542 1542 1542 1542 1542 1542 1542 1541 1541 1540 1540 1539 1539 1538 1536 1535 1534 1533 1533 1532 1531 1530 1529 1528 1527 1527 1527 1526 1526 1526 1526 1527 1527 1528 1529
1537 1537 1537 1537 1537 1537 1537 1537 1537 1536 1536 1535 1535 1534 1533 1533 1532 1531 1530 1529 1527 1528 1527 1525 1525 1523 1523 1522 1521 1521 1521 1520 1520 1520 1520 1520 1521 1521
1532 1532 1532 1532 1533 1532 1531 1531 1531 1530 1530 1529 1528 1527 1527 1527 1527 1526 1524 1523 1521 1521 1521 1518 1518 1516 1516 1516 1516 1515 1514 1514 1514 1514 1513 1513 1513 1513
1526 1526 1526 1526 1527 1527 1526 1525 1524 1523 1523 1522 1521 1520 1520 1520 1520 1519 1518 1516 1514 1514 1514 1511 1510 1510 1509 1509 1509 1508 1508 1507 1507 1507 1506 1506 1506 1505
1520 1520 1520 1520 1520 1520 1519 1518 1517 1516 1516 1515 1514 1513 1512 1512 1513 1512 1510 1509 1506 1506 1507 1505 1503 1503 1502 1502 1502 1501 1501 1500 1500 1499 1499 1499 1499 1498
1513 1514 1514 1513 1513 1513 1512 1510 1509 1508 1508 1507 1506 1505 1504 1503 1504 1503 1502 1501 1499 1498 1498 1499 1497 1497 1495 1494 1494 1494 1493 1493 1492 1492 1492 1492 1492 1491
1507 1507 1507 1507 1506 1505 1504 1503 1501 1501 1500 1498 1497 1496 1495 1494 1493 1493 1492 1492 1491 1489 1490 1492 1491 1490 1489 1487 1486 1487 1486 1485 1485 1484 1484 1484 1484 1484
1501 1501 1501 1500 1499 1497 1496 1495 1494 1493 1491 1489 1487 1486 1485 1485 1484 1484 1483 1482 1481 1481 1482 1483 1483 1482 1481 1479 1478 1478 1478 1478 1478 1477 1477 1476 1476 1476
1495 1494 1493 1492 1490 1488 1487 1486 1485 1483 1481 1479 1477 1475 1475 1475 1475 1475 1474 1473 1472 1472 1472 1473 1473 1473 1473 1472 1470 1470 1470 1470 1470 1470 1469 1469 1468 1468
1488 1487 1485 1484 1482 1479 1477 1476 1474 1473 1471 1469 1467 1466 1466 1466 1466 1465 1465 1464 1463 1461 1462 1463 1463 1464 1463 1463 1462 1461 1462 1461 1461 1461 1461 1461 1460 1460
1481 1479 1477 1475 1473 1470 1469 1467 1466 1464 1462 1460 1458 1457 1456 1456 1455 1455 1455 1454 1453 1452 1452 1453 1454 1454 1454 1454 1453 1452 1452 1452 1452 1453 1453 1451 1451 1451
1475 1472 1469 1467 1465 1463 1461 1459 1457 1456 1454 1452 1450 1449 1447 1446 1445 1445 1445 1444 1443 1442 1443 1444 1445 1445 1444 1443 1444 1443 1443 1443 1443 1444 1444 1442 1441 1442
1468 1465 1463 1460 1458 1456 1454 1452 1449 1447 1445 1444 1442 1440 1438 1437 1436 1435 1435 1434 1433 1433 1433 1434 1435 1435 1434 1433 1433 1436 1435 1434 1435 1434 1434 1434 1433 1433
1463 1460 1458 1455 1452 1449 1447 1444 1442 1439 1437 1435 1433 1431 1430 1428 1427 1426 1425 1425 1424 1423 1423 1424 1424 1425 1424 1425 1425 1426 1427 1426 1426 1426 1426 1425 1425 1425
1458 1455 1452 1449 1446 1443 1440 1437 1435 1432 1429 1427 1425 1423 1421 1420 1418 1417 1417 1416 1415 1414 1414 1414 1414 1416 1416 1417 1416 1415 1417 1418 1417 1417 1417 1418 1417 1416
1452 1450 1446 1443 1440 1437 1434 1431 1428 1425 1422 1420 1417 1415 1414 1412 1411 1409 1409 1407 1406 1406 1405 1405 1406 1407 1407 1407 1406 1406 1407 1408 1409 1409 1409 1409 1408 1407
1447 1444 1440 1437 1434 1431 1427 1425 1422 1419 1416 1413 1411 1409 1407 1405 1404 1402 1401 1400 1399 1398 1398 1397 1398 1398 1398 1398 1398 1398 1399 1399 1400 1399 1399 1399 1400 1399